{"data":{"norad_id":53174,"epoch":"2026-09-20T00:34:15.430080Z","epoch_age_seconds":113352,"freshness":"FRESH","line1":"1 53174U 22083AU  26263.02378970  .00000014  00000+0  12228-4 0  9993","line2":"2 53174  53.1611   6.1576 0001261  79.6340 280.4803 15.31698614230760","mean_motion":15.31698614,"eccentricity":0.0001261,"inclination_deg":53.1611,"raan_deg":6.1576,"arg_perigee_deg":79.634,"mean_anomaly_deg":280.4803,"bstar":1.2228e-5,"rev_number":23076,"period_min":94.013273031531,"perigee_km":469.88048291255,"apogee_km":471.60777073273,"semimajor_km":6848.8811268226,"source":"CELESTRAK","updated_at":"2026-09-20T09:00:40.186496Z"}}